This demonstration page uses our WeatherBlox Daily Observations layout. Learn more.

Left ArrowRight Arrow

44.89941, -97.11507

Hourly Observations for November 19, 2019

Temp ( °F °C ) Dew Point ( °F °C ) Humidity (%) Winds ( mph kmh ) Pressure ( in mb ) Visibility ( mi km ) Precip ( " mm )
12:53 am 00:53 Clear 37 2.8 32 0 82 82 W 10 17 29.75 1007 10 16 0.00 0.00
1:53 am 01:53 Clear 35 1.7 30 -1.1 82 82 W 10 17 29.76 1008 10 16 0.00 0.00
2:53 am 02:53 Clear 35 1.7 29 -1.7 78 78 W 8 13 29.77 1008 10 16 0.00 0.00
3:53 am 03:53 Clear 32 0 28 -2.2 85 85 W 9 15 29.78 1008 10 16 0.00 0.00
4:53 am 04:53 Clear 33 0.6 28 -2.2 82 82 WNW 10 17 29.79 1009 10 16 0.00 0.00
5:53 am 05:53 Clear 32 0 28 -2.2 85 85 NW 8 13 29.80 1009 10 16 0.00 0.00
6:53 am 06:53 Clear 32 0 29 -1.7 88 88 WNW 9 15 29.82 1010 10 16 0.00 0.00
7:43 am 07:43 Mostly Cloudy 33 0.6 29 -1.7 85 85 W 10 17 29.86 1011 10 16 0.00 0.00
7:53 am 07:53 Cloudy 33 0.6 29 -1.7 85 85 W 9 15 29.83 1010 10 16 0.00 0.00
8:25 am 08:25 Cloudy 34 1.1 30 -1.1 85 85 WNW 8 13 29.87 1012 10 16 0.00 0.00
8:53 am 08:53 Cloudy 34 1.1 30 -1.1 85 85 WNW 10 17 29.85 1011 10 16 0.00 0.00
9:41 am 09:41 Mostly Cloudy 36 2.2 32 0 86 86 NW 7 11 29.88 1012 10 16 0.00 0.00
9:53 am 09:53 Mostly Cloudy 36 2.2 33 0.6 89 89 NNW 9 15 29.87 1011 10 16 0.00 0.00
10:53 am 10:53 Cloudy 38 3.3 34 1.1 86 86 NW 9 15 29.89 1012 10 16 0.00 0.00
11:53 am 11:53 Cloudy 40 4.4 35 1.7 83 83 NW 9 15 29.89 1012 10 16 0.00 0.00
12:53 pm 12:53 Cloudy 40 4.4 33 0.6 77 77 NW 12 19 29.89 1012 10 16 0.00 0.00
1:53 pm 13:53 Cloudy 39 3.9 33 0.6 79 79 NW 8 13 29.91 1013 10 16 0.00 0.00
2:53 pm 14:53 Cloudy 39 3.9 33 0.6 79 79 N 8 13 29.87 1012 10 16 0.00 0.00
3:27 pm 15:27 Cloudy 38 3.3 33 0.6 83 83 NW 3 6 29.89 1012 10 16 0.00 0.00
3:53 pm 15:53 Cloudy 38 3.3 32 0 79 79 Calm 29.89 1012 10 16 0.00 0.00
4:53 pm 16:53 Cloudy 37 2.8 32 0 82 82 NNW 3 6 29.91 1013 10 16 0.00 0.00
5:53 pm 17:53 Cloudy 36 2.2 32 0 86 86 NNE 5 7 29.92 1013 10 16 0.00 0.00
6:53 pm 18:53 Cloudy 36 2.2 32 0 86 86 NE 3 6 29.93 1014 10 16 0.00 0.00
7:53 pm 19:53 Cloudy 35 1.7 31 -0.6 85 85 ESE 5 7 29.94 1014 10 16 0.00 0.00
8:53 pm 20:53 Mostly Cloudy 34 1.1 31 -0.6 89 89 E 3 6 29.96 1015 10 16 0.00 0.00
9:13 pm 21:13 Mostly Clear 34 1.1 31 -0.6 89 89 Calm 29.99 1016 10 16 0.00 0.00
9:53 pm 21:53 Mostly Clear 34 1.1 31 -0.6 89 89 Calm 29.97 1015 10 16 0.00 0.00
10:53 pm 22:53 Partly Cloudy 34 1.1 31 -0.6 89 89 ESE 3 6 29.96 1014 10 16 0.00 0.00
11:53 pm 23:53 Mostly Cloudy 34 1.1 31 -0.6 89 89 ESE 6 9 29.95 1014 10 16 0.00 0.00

Powered by AerisWeather